Regional Weather Roundup
Issued by NWS Sioux Falls, SD

Home | Current Version | Previous Version | Graphics & Text | Print | Product List | Glossary Off
Versions: 1 2 3 4 5 6 7 8 9 10 11 12 13 14 15 16 17 18 19 20 21 22 23 24 25 26 27 28 29 30 31 32 33 34 35 36 37 38 39 40 41 42 43 44 45 46 47 48 49 50

000
ASUS43 KFSD 291110
RWRFSD

WEATHER ROUNDUP FOR SE SOUTH DAKOTA/SW MINNESOTA/NW IOWA
NATIONAL WEATHER SERVICE SIOUX FALLS SD
600 AM CDT WED MAR 29 2017

NOTE: "FAIR" INDICATES FEW OR NO CLOUDS BELOW 12,000 FEET WITH NO
SIGNIFICANT WEATHER AND OR OBSTRUCTIONS TO VISIBILITY.


SDZ038>040-050-052>070-291200-
SOUTHEAST SOUTH DAKOTA

CITY           SKY/WX    TMP DP  RH WIND       PRES   REMARKS
BROOKINGS      CLOUDY    39  34  82 E3        30.13F
CHAMBERLAIN    CLOUDY    41  41  99 W3        30.14R
HURON          CLOUDY    41  38  89 CALM      30.13S
MADISON        FAIR      37  37 100 NE8       30.13S
MITCHELL       CLOUDY    40  37  89 NE3       30.13S
SIOUX FALLS    CLOUDY    42  38  85 E5        30.13S
WINNER         PTSUNNY   42  41  96 NW7       30.13S FOG
YANKTON        CLOUDY    45  39  81 NE7       30.11R
$$

MNZ071-072-080-081-089-090-097-098-291200-
SOUTHWEST MINNESOTA

CITY           SKY/WX    TMP DP  RH WIND       PRES   REMARKS
FAIRMONT       CLOUDY    40  37  89 NE3       30.16S
JACKSON        CLOUDY    39  36  87 CALM      30.15S
LUVERNE        CLOUDY    39  34  81 CALM      30.14S
MARSHALL       MOCLDY    35  33  92 NW5       30.16F
MONTEVIDEO     CLOUDY    34  28  80 CALM      30.17F
PIPESTONE      CLOUDY    43  34  70 E3        30.13S
REDWOOD FALLS  MOCLDY    42  33  70 NE3       30.16S
TRACY          MOCLDY    43  36  75 CALM      30.16S
WINDOM         CLOUDY    39  37  93 CALM      30.15S
WORTHINGTON    CLOUDY    38  36  92 NE5       30.14F
$$

IAZ001>003-012>014-020>022-031-032-NEZ013-014-SDZ071-291200-
NORTHWEST IOWA

CITY           SKY/WX    TMP DP  RH WIND       PRES   REMARKS
CHEROKEE       LGT RAIN  43  43 100 NE6       30.13S
DENISON        LGT RAIN  45  43  93 NE13      30.07F
ESTHERVILLE    CLOUDY    39  39 100 NE5       30.15R
LE MARS        DRIZZLE   45  43  93 NE6       30.12S
ORANGE CITY    DRIZZLE   43  41  93 E5        30.12S
SHELDON        CLOUDY    41  39  93 E5        30.12R
SIOUX CITY     LGT RAIN  45  44  97 E12       30.09F
SPENCER        CLOUDY    42  40  92 E6        30.15R
STORM LAKE     LGT RAIN  43  43 100 E12       30.12S
$$

ABBREVIATIONS USED IN REMARKS
   TC - TEMPERATURE IN CELSIUS
  WCI - WIND CHILL INDEX
   HX - HEAT INDEX
  VSB - VISIBILITY




USA.gov is the U.S. government's official web portal to all federal, state and local government web resources and services.